| time (UTC) | temp F | wind direction | speed MPH | gust MPH | rain 1hr in | rain 24hr in | rain mn in | humidity % | barometer mb |
| 20260905010532 | 54 | 269 | 2.0 | 4.0 | 0.00 | 0.34 | 0.00 | 80 | 1012.6 |
| 20260905010054 | 54 | 266 | 1.0 | 4.0 | 0.00 | 0.34 | 0.00 | 80 | 1012.5 |
| 20260905005531 | 54 | 285 | 1.0 | 4.0 | 0.00 | 0.35 | 0.00 | 80 | 1012.4 |
| 20260905005031 | 54 | 276 | 1.0 | 4.0 | 0.00 | 0.35 | 0.00 | 80 | 1012.3 |
| 20260905004611 | 54 | 281 | 1.0 | 4.0 | 0.00 | 0.35 | 0.00 | 80 | 1012.4 |
| 20260905004031 | 54 | 276 | 1.0 | 4.0 | 0.00 | 0.35 | 0.00 | 79 | 1012.3 |
| 20260905003533 | 54 | 291 | 2.0 | 4.0 | 0.00 | 0.35 | 0.00 | 80 | 1012.3 |
| 20260905003050 | 54 | 308 | 1.0 | 5.0 | 0.00 | 0.35 | 0.00 | 79 | 1012.2 |
| 20260905002530 | 54 | 273 | 2.0 | 5.0 | 0.00 | 0.35 | 0.00 | 79 | 1012.2 |
| 20260905002031 | 54 | 242 | 2.0 | 5.0 | 0.00 | 0.35 | 0.00 | 80 | 1012.1 |
| 20260905001555 | 54 | 252 | 1.0 | 6.0 | 0.00 | 0.35 | 0.00 | 80 | 1012.3 |
| 20260905001031 | 54 | 282 | 2.0 | 6.0 | 0.00 | 0.35 | 0.00 | 80 | 1012.1 |
| 20260905000531 | 55 | 302 | 1.0 | 7.0 | 0.00 | 0.35 | 0.00 | 80 | 1012.0 |
| 20260905000044 | 55 | 283 | 2.0 | 7.0 | 0.00 | 0.35 | 0.00 | 80 | 1011.8 |
| 20260904235532 | 55 | 224 | 2.0 | 7.0 | 0.00 | 0.43 | 0.00 | 80 | 1011.7 |
| 20260904235036 | 55 | 299 | 2.0 | 6.0 | 0.00 | 0.43 | 0.00 | 80 | 1011.7 |
| 20260904234554 | 55 | 287 | 1.0 | 5.0 | 0.00 | 0.43 | 0.00 | 79 | 1011.6 |
| 20260904234031 | 55 | 297 | 1.0 | 4.0 | 0.00 | 0.43 | 0.00 | 79 | 1011.5 |
| 20260904233531 | 55 | 247 | 1.0 | 4.0 | 0.00 | 0.43 | 0.00 | 79 | 1011.5 |
| 20260904233051 | 56 | 319 | 1.0 | 4.0 | 0.00 | 0.43 | 0.00 | 79 | 1011.5 |
| 20260904232532 | 56 | 289 | 1.0 | 4.0 | 0.00 | 0.43 | 0.00 | 79 | 1011.3 |
| 20260904232030 | 55 | 283 | 2.0 | 4.0 | 0.00 | 0.43 | 0.00 | 79 | 1011.1 |
| 20260904231547 | 55 | 288 | 1.0 | 3.0 | 0.00 | 0.43 | 0.00 | 79 | 1011.0 |
| 20260904231031 | 55 | 271 | 1.0 | 4.0 | 0.00 | 0.43 | 0.00 | 79 | 1010.9 |
| 20260904230531 | 55 | 269 | 1.0 | 4.0 | 0.00 | 0.43 | 0.00 | 79 | 1010.9 |
| 20260904225531 | 56 | 268 | 1.0 | 4.0 | 0.00 | 0.44 | 0.43 | 79 | 1010.9 |
| 20260904225031 | 56 | 300 | 1.0 | 5.0 | 0.00 | 0.44 | 0.43 | 79 | 1010.9 |
| 20260904224543 | 56 | 265 | 2.0 | 5.0 | 0.00 | 0.44 | 0.43 | 79 | 1010.8 |
| 20260904224034 | 56 | 283 | 1.0 | 4.0 | 0.00 | 0.44 | 0.43 | 80 | 1010.8 |
| 20260904223536 | 56 | 282 | 1.0 | 5.0 | 0.00 | 0.44 | 0.43 | 80 | 1010.8 |
| 20260904223052 | 56 | 236 | 2.0 | 5.0 | 0.00 | 0.44 | 0.43 | 80 | 1010.6 |
| 20260904222531 | 56 | 293 | 1.0 | 4.0 | 0.00 | 0.44 | 0.43 | 81 | 1010.6 |
| 20260904222031 | 56 | 303 | 1.0 | 4.0 | 0.00 | 0.44 | 0.43 | 81 | 1010.4 |
| 20260904221552 | 56 | 256 | 1.0 | 4.0 | 0.00 | 0.44 | 0.43 | 81 | 1010.6 |
| 20260904221031 | 56 | 245 | 1.0 | 4.0 | 0.00 | 0.44 | 0.43 | 80 | 1010.4 |
| 20260904220531 | 56 | 311 | 1.0 | 3.0 | 0.00 | 0.44 | 0.43 | 80 | 1010.4 |
| 20260904220050 | 56 | 290 | 1.0 | 3.0 | 0.00 | 0.44 | 0.43 | 80 | 1010.3 |
| 20260904215531 | 56 | 254 | 1.0 | 3.0 | 0.00 | 0.45 | 0.43 | 80 | 1010.4 |
| 20260904215030 | 56 | 302 | 0.0 | 3.0 | 0.00 | 0.45 | 0.43 | 80 | 1010.3 |
| 20260904214545 | 56 | 295 | 1.0 | 3.0 | 0.00 | 0.45 | 0.43 | 80 | 1010.4 |
| 20260904214031 | 56 | 269 | 0.0 | 4.0 | 0.00 | 0.45 | 0.43 | 80 | 1010.3 |
| 20260904213531 | 56 | 252 | 1.0 | 4.0 | 0.00 | 0.45 | 0.43 | 80 | 1010.4 |
| 20260904213051 | 56 | 287 | 1.0 | 3.0 | 0.00 | 0.45 | 0.43 | 80 | 1010.4 |
| 20260904212531 | 56 | 326 | 1.0 | 3.0 | 0.00 | 0.45 | 0.43 | 81 | 1010.3 |
| 20260904212031 | 56 | 266 | 1.0 | 3.0 | 0.00 | 0.45 | 0.43 | 81 | 1010.3 |
| 20260904211543 | 56 | 245 | 1.0 | 3.0 | 0.00 | 0.45 | 0.43 | 81 | 1010.3 |
| 20260904211030 | 56 | 283 | 1.0 | 3.0 | 0.00 | 0.45 | 0.43 | 81 | 1010.2 |
| 20260904210530 | 56 | 259 | 1.0 | 4.0 | 0.00 | 0.45 | 0.43 | 81 | 1010.0 |
| 20260904210044 | 56 | 271 | 1.0 | 4.0 | 0.00 | 0.45 | 0.43 | 81 | 1010.1 |
| 20260904205530 | 56 | 250 | 1.0 | 3.0 | 0.00 | 0.47 | 0.43 | 82 | 1010.1 |
| 20260904205034 | 56 | 285 | 1.0 | 4.0 | 0.00 | 0.47 | 0.43 | 81 | 1010.0 |
| 20260904204550 | 56 | 300 | 1.0 | 4.0 | 0.00 | 0.47 | 0.43 | 81 | 1009.9 |
| 20260904204031 | 57 | 293 | 1.0 | 4.0 | 0.00 | 0.47 | 0.43 | 80 | 1009.7 |
| 20260904203531 | 57 | 257 | 1.0 | 3.0 | 0.00 | 0.47 | 0.43 | 80 | 1009.6 |
| 20260904203047 | 57 | 284 | 1.0 | 5.0 | 0.00 | 0.47 | 0.43 | 80 | 1009.5 |
| 20260904202530 | 56 | 274 | 2.0 | 6.0 | 0.00 | 0.47 | 0.43 | 80 | 1009.5 |
| 20260904202030 | 56 | 301 | 2.0 | 6.0 | 0.00 | 0.47 | 0.43 | 80 | 1009.5 |
| 20260904201544 | 56 | 297 | 2.0 | 7.0 | 0.00 | 0.47 | 0.43 | 81 | 1009.5 |
| 20260904201033 | 56 | 277 | 2.0 | 7.0 | 0.00 | 0.47 | 0.43 | 81 | 1009.4 |
| 20260904200533 | 56 | 225 | 2.0 | 6.0 | 0.00 | 0.47 | 0.43 | 81 | 1009.5 |
| 20260904200053 | 56 | 262 | 2.0 | 6.0 | 0.00 | 0.47 | 0.43 | 81 | 1009.3 |
| 20260904195533 | 56 | 288 | 3.0 | 6.0 | 0.00 | 0.51 | 0.43 | 81 | 1009.2 |
| 20260904195033 | 56 | 279 | 2.0 | 6.0 | 0.00 | 0.51 | 0.43 | 81 | 1009.2 |
| 20260904194553 | 56 | 305 | 3.0 | 6.0 | 0.00 | 0.51 | 0.43 | 81 | 1009.2 |
| 20260904194031 | 56 | 290 | 2.0 | 5.0 | 0.00 | 0.51 | 0.43 | 81 | 1009.0 |
| 20260904193531 | 56 | 268 | 1.0 | 4.0 | 0.00 | 0.51 | 0.43 | 81 | 1009.1 |
| 20260904193047 | 56 | 304 | 2.0 | 5.0 | 0.00 | 0.51 | 0.43 | 80 | 1009.2 |
| 20260904192533 | 57 | 314 | 2.0 | 5.0 | 0.00 | 0.51 | 0.43 | 80 | 1009.1 |
| 20260904192034 | 56 | 283 | 2.0 | 7.0 | 0.00 | 0.51 | 0.43 | 80 | 1009.1 |
| 20260904191553 | 56 | 280 | 2.0 | 7.0 | 0.00 | 0.51 | 0.43 | 80 | 1009.1 |
| 20260904191033 | 57 | 273 | 3.0 | 7.0 | 0.00 | 0.51 | 0.43 | 80 | 1008.9 |
| 20260904190533 | 57 | 280 | 2.0 | 6.0 | 0.00 | 0.51 | 0.43 | 80 | 1008.9 |
| 20260904190055 | 57 | 319 | 2.0 | 6.0 | 0.00 | 0.51 | 0.43 | 80 | 1009.0 |
| 20260904185532 | 57 | 277 | 2.0 | 5.0 | 0.00 | 0.52 | 0.43 | 80 | 1009.0 |
| 20260904185032 | 57 | 295 | 2.0 | 5.0 | 0.00 | 0.52 | 0.43 | 80 | 1009.0 |
| 20260904184549 | 57 | 302 | 2.0 | 5.0 | 0.00 | 0.52 | 0.43 | 80 | 1008.8 |
| 20260904184034 | 57 | 219 | 1.0 | 6.0 | 0.00 | 0.52 | 0.43 | 81 | 1008.9 |
| 20260904183532 | 57 | 269 | 2.0 | 6.0 | 0.00 | 0.52 | 0.43 | 81 | 1009.1 |
| 20260904183058 | 57 | 295 | 2.0 | 6.0 | 0.00 | 0.52 | 0.43 | 80 | 1008.9 |
| 20260904182534 | 57 | 311 | 2.0 | 6.0 | 0.00 | 0.52 | 0.43 | 80 | 1008.7 |
| 20260904182032 | 57 | 241 | 2.0 | 6.0 | 0.00 | 0.52 | 0.43 | 80 | 1008.8 |
| 20260904181553 | 57 | 266 | 2.0 | 4.0 | 0.00 | 0.52 | 0.43 | 79 | 1008.8 |
| 20260904181032 | 58 | 284 | 1.0 | 4.0 | 0.00 | 0.52 | 0.43 | 78 | 1008.7 |
| 20260904180534 | 58 | 82 | 1.0 | 5.0 | 0.00 | 0.52 | 0.43 | 78 | 1008.6 |
| 20260904180051 | 58 | 285 | 1.0 | 5.0 | 0.00 | 0.52 | 0.43 | 79 | 1008.6 |
| 20260904175532 | 58 | 271 | 1.0 | 5.0 | 0.00 | 0.54 | 0.43 | 79 | 1008.6 |
| 20260904175032 | 58 | 336 | 2.0 | 3.0 | 0.00 | 0.54 | 0.43 | 79 | 1008.7 |
| 20260904174550 | 58 | 210 | 1.0 | 4.0 | 0.00 | 0.54 | 0.43 | 79 | 1008.8 |
| 20260904174031 | 58 | 288 | 0.0 | 4.0 | 0.00 | 0.54 | 0.43 | 79 | 1008.7 |
| 20260904173531 | 58 | 260 | 1.0 | 3.0 | 0.00 | 0.54 | 0.43 | 79 | 1008.7 |
| 20260904173046 | 58 | 256 | 1.0 | 3.0 | 0.00 | 0.54 | 0.43 | 79 | 1008.8 |
| 20260904172532 | 58 | 276 | 1.0 | 3.0 | 0.00 | 0.54 | 0.43 | 79 | 1008.7 |
| 20260904172033 | 58 | 293 | 0.0 | 3.0 | 0.00 | 0.54 | 0.43 | 79 | 1008.7 |
| 20260904171554 | 58 | 295 | 1.0 | 3.0 | 0.00 | 0.54 | 0.43 | 79 | 1008.7 |
| 20260904171033 | 59 | 238 | 0.0 | 4.0 | 0.00 | 0.54 | 0.43 | 79 | 1008.5 |
| 20260904170532 | 58 | 340 | 1.0 | 4.0 | 0.00 | 0.54 | 0.43 | 79 | 1008.6 |
| 20260904170053 | 58 | 273 | 1.0 | 4.0 | 0.00 | 0.54 | 0.43 | 79 | 1008.5 |
| 20260904165532 | 58 | 293 | 1.0 | 4.0 | 0.00 | 0.54 | 0.43 | 79 | 1008.4 |
| 20260904165032 | 57 | 32 | 2.0 | 4.0 | 0.00 | 0.54 | 0.43 | 79 | 1008.3 |
| 20260904164549 | 58 | 223 | 1.0 | 5.0 | 0.00 | 0.54 | 0.43 | 79 | 1008.2 |
| 20260904164032 | 58 | 271 | 1.0 | 5.0 | 0.00 | 0.53 | 0.42 | 78 | 1008.1 |
| 20260904163533 | 59 | 274 | 2.0 | 5.0 | 0.00 | 0.53 | 0.42 | 76 | 1008.0 |
| 20260904163044 | 60 | 294 | 1.0 | 5.0 | 0.00 | 0.53 | 0.42 | 75 | 1007.8 |
| 20260904162535 | 60 | 270 | 1.0 | 5.0 | 0.00 | 0.53 | 0.42 | 74 | 1007.6 |
| 20260904162032 | 60 | 42 | 1.0 | 4.0 | 0.00 | 0.53 | 0.42 | 75 | 1007.8 |
| 20260904161545 | 61 | 243 | 1.0 | 4.0 | 0.00 | 0.53 | 0.42 | 74 | 1007.7 |
| 20260904161033 | 61 | 240 | 1.0 | 4.0 | 0.00 | 0.53 | 0.42 | 74 | 1007.5 |
| 20260904160532 | 61 | 248 | 1.0 | 5.0 | 0.00 | 0.53 | 0.42 | 75 | 1007.5 |
| 20260904160104 | 61 | 264 | 1.0 | 5.0 | 0.00 | 0.53 | 0.42 | 75 | 1007.5 |
| 20260904155532 | 61 | 287 | 1.0 | 5.0 | 0.00 | 0.53 | 0.42 | 75 | 1007.3 |
| 20260904155031 | 61 | 265 | 1.0 | 5.0 | 0.00 | 0.53 | 0.42 | 75 | 1007.3 |
| 20260904154551 | 61 | 247 | 2.0 | 7.0 | 0.00 | 0.53 | 0.42 | 75 | 1007.2 |
| 20260904154030 | 61 | 238 | 1.0 | 7.0 | 0.00 | 0.53 | 0.42 | 76 | 1007.0 |
| 20260904153530 | 61 | 300 | 1.0 | 5.0 | 0.00 | 0.53 | 0.42 | 76 | 1006.9 |
| 20260904153105 | 61 | 261 | 2.0 | 5.0 | 0.00 | 0.53 | 0.42 | 75 | 1006.8 |
| 20260904152532 | 61 | 252 | 1.0 | 5.0 | 0.00 | 0.53 | 0.42 | 77 | 1006.7 |
| 20260904152030 | 60 | 266 | 2.0 | 5.0 | 0.00 | 0.53 | 0.42 | 77 | 1006.7 |
| 20260904151552 | 60 | 267 | 2.0 | 5.0 | 0.00 | 0.53 | 0.42 | 77 | 1006.6 |
| 20260904151034 | 60 | 267 | 2.0 | 5.0 | 0.00 | 0.53 | 0.42 | 77 | 1006.7 |
| 20260904150530 | 60 | 278 | 2.0 | 4.0 | 0.00 | 0.53 | 0.42 | 76 | 1006.7 |
| 20260904145530 | 61 | 25 | 2.0 | 5.0 | 0.00 | 0.53 | 0.42 | 75 | 1006.4 |
| 20260904145030 | 61 | 293 | 1.0 | 6.0 | 0.00 | 0.53 | 0.42 | 74 | 1006.3 |
| 20260904144547 | 61 | 275 | 2.0 | 6.0 | 0.00 | 0.53 | 0.42 | 74 | 1006.4 |
| 20260904144030 | 61 | 269 | 2.0 | 9.0 | 0.00 | 0.53 | 0.42 | 73 | 1006.2 |
| 20260904143530 | 61 | 290 | 2.0 | 9.0 | 0.00 | 0.53 | 0.42 | 73 | 1006.2 |
| 20260904143052 | 61 | 268 | 3.0 | 7.0 | 0.00 | 0.53 | 0.42 | 73 | 1006.1 |
| 20260904142531 | 61 | 304 | 3.0 | 7.0 | 0.00 | 0.52 | 0.41 | 73 | 1006.0 |
| 20260904142032 | 62 | 330 | 2.0 | 6.0 | 0.00 | 0.52 | 0.41 | 74 | 1005.9 |
| 20260904141554 | 62 | 275 | 2.0 | 7.0 | 0.00 | 0.52 | 0.41 | 74 | 1006.0 |
| 20260904141030 | 61 | 289 | 2.0 | 7.0 | 0.00 | 0.52 | 0.41 | 73 | 1006.0 |
| 20260904140536 | 61 | 246 | 2.0 | 7.0 | 0.00 | 0.52 | 0.41 | 74 | 1006.0 |
| 20260904140057 | 61 | 302 | 2.0 | 6.0 | 0.00 | 0.52 | 0.41 | 73 | 1005.9 |
| 20260904135532 | 61 | 280 | 2.0 | 6.0 | 0.00 | 0.52 | 0.41 | 74 | 1006.0 |
| 20260904135030 | 61 | 281 | 2.0 | 5.0 | 0.00 | 0.52 | 0.41 | 74 | 1006.0 |
| 20260904134549 | 61 | 300 | 3.0 | 5.0 | 0.00 | 0.52 | 0.41 | 73 | 1005.9 |
| 20260904134031 | 61 | 298 | 2.0 | 5.0 | 0.00 | 0.52 | 0.41 | 74 | 1005.9 |
| 20260904133531 | 61 | 252 | 2.0 | 6.0 | 0.00 | 0.52 | 0.41 | 75 | 1005.7 |
| 20260904133046 | 61 | 214 | 1.0 | 6.0 | 0.00 | 0.52 | 0.41 | 75 | 1005.9 |
| 20260904132533 | 60 | 269 | 2.0 | 6.0 | 0.00 | 0.52 | 0.41 | 76 | 1005.9 |
| 20260904132034 | 60 | 290 | 2.0 | 6.0 | 0.00 | 0.52 | 0.41 | 76 | 1005.8 |
| 20260904131550 | 60 | 285 | 1.0 | 6.0 | 0.00 | 0.52 | 0.41 | 76 | 1005.7 |
| 20260904131031 | 60 | 258 | 3.0 | 6.0 | 0.00 | 0.52 | 0.41 | 76 | 1005.7 |
| 20260904130536 | 60 | 263 | 2.0 | 6.0 | 0.00 | 0.52 | 0.41 | 77 | 1005.5 |
| 20260904130101 | 59 | 294 | 2.0 | 6.0 | 0.00 | 0.52 | 0.41 | 77 | 1005.5 |
| 20260904125532 | 59 | 285 | 2.0 | 7.0 | 0.00 | 0.52 | 0.41 | 77 | 1005.5 |
| 20260904125032 | 59 | 278 | 2.0 | 7.0 | 0.00 | 0.52 | 0.41 | 77 | 1005.3 |
| 20260904124547 | 59 | 295 | 2.0 | 8.0 | 0.00 | 0.52 | 0.41 | 78 | 1005.2 |
| 20260904124036 | 59 | 297 | 2.0 | 8.0 | 0.00 | 0.52 | 0.41 | 78 | 1005.2 |
| 20260904123536 | 58 | 281 | 2.0 | 4.0 | 0.00 | 0.52 | 0.41 | 79 | 1005.2 |
| 20260904123043 | 58 | 270 | 1.0 | 4.0 | 0.00 | 0.52 | 0.41 | 80 | 1005.1 |
| 20260904122532 | 57 | 240 | 2.0 | 7.0 | 0.00 | 0.52 | 0.41 | 79 | 1005.2 |
| 20260904122033 | 57 | 267 | 2.0 | 7.0 | 0.00 | 0.52 | 0.41 | 79 | 1005.0 |
| 20260904121552 | 58 | 320 | 2.0 | 6.0 | 0.00 | 0.52 | 0.41 | 79 | 1005.1 |
| 20260904121034 | 58 | 293 | 2.0 | 6.0 | 0.00 | 0.52 | 0.41 | 79 | 1005.0 |
| 20260904120531 | 58 | 275 | 2.0 | 6.0 | 0.00 | 0.52 | 0.41 | 79 | 1004.9 |
| 20260904120104 | 58 | 257 | 2.0 | 5.0 | 0.00 | 0.52 | 0.41 | 80 | 1004.7 |
| 20260904115532 | 58 | 289 | 1.0 | 5.0 | 0.00 | 0.52 | 0.41 | 79 | 1004.7 |
| 20260904115032 | 59 | 219 | 2.0 | 8.0 | 0.00 | 0.52 | 0.41 | 78 | 1004.5 |
| 20260904114543 | 59 | 330 | 1.0 | 8.0 | 0.00 | 0.52 | 0.41 | 77 | 1004.6 |
| 20260904114036 | 58 | 280 | 2.0 | 8.0 | 0.00 | 0.52 | 0.41 | 77 | 1004.3 |
| 20260904113532 | 59 | 295 | 2.0 | 8.0 | 0.00 | 0.52 | 0.41 | 77 | 1004.4 |
| 20260904113056 | 59 | 278 | 1.0 | 7.0 | 0.00 | 0.52 | 0.41 | 78 | 1004.2 |
| 20260904112533 | 59 | 257 | 2.0 | 7.0 | 0.00 | 0.52 | 0.41 | 78 | 1004.2 |
| 20260904112035 | 58 | 243 | 1.0 | 5.0 | 0.00 | 0.52 | 0.41 | 79 | 1004.3 |
| 20260904111542 | 58 | 231 | 1.0 | 5.0 | 0.00 | 0.52 | 0.41 | 79 | 1004.1 |
| 20260904111033 | 58 | 288 | 1.0 | 4.0 | 0.00 | 0.52 | 0.41 | 80 | 1004.0 |
| 20260904110532 | 58 | 274 | 1.0 | 4.0 | 0.00 | 0.52 | 0.41 | 80 | 1003.9 |
| 20260904110048 | 58 | 302 | 1.0 | 4.0 | 0.00 | 0.52 | 0.41 | 81 | 1004.0 |
| 20260904105532 | 58 | 212 | 1.0 | 4.0 | 0.01 | 0.52 | 0.41 | 81 | 1004.0 |
| 20260904105032 | 58 | 257 | 1.0 | 5.0 | 0.02 | 0.52 | 0.41 | 81 | 1003.9 |
| 20260904104552 | 58 | 298 | 1.0 | 5.0 | 0.07 | 0.52 | 0.41 | 81 | 1003.7 |
| 20260904104031 | 58 | 282 | 1.0 | 6.0 | 0.07 | 0.52 | 0.41 | 81 | 1003.5 |
| 20260904103531 | 58 | 328 | 2.0 | 7.0 | 0.07 | 0.52 | 0.41 | 82 | 1003.5 |
| 20260904103051 | 58 | 301 | 2.0 | 7.0 | 0.07 | 0.52 | 0.41 | 83 | 1003.4 |
| 20260904102531 | 57 | 290 | 2.0 | 8.0 | 0.07 | 0.52 | 0.41 | 84 | 1003.2 |
| 20260904102032 | 57 | 244 | 3.0 | 8.0 | 0.09 | 0.52 | 0.41 | 85 | 1003.0 |
| 20260904101547 | 57 | 293 | 2.0 | 8.0 | 0.10 | 0.52 | 0.41 | 87 | 1002.9 |
| 20260904101031 | 56 | 262 | 2.0 | 8.0 | 0.11 | 0.52 | 0.41 | 87 | 1002.7 |
| 20260904100534 | 56 | 283 | 2.0 | 8.0 | 0.11 | 0.52 | 0.41 | 87 | 1002.5 |
| 20260904100042 | 56 | 259 | 1.0 | 4.0 | 0.13 | 0.51 | 0.40 | 87 | 1002.3 |
| 20260904095533 | 56 | 274 | 1.0 | 4.0 | 0.14 | 0.51 | 0.40 | 87 | 1002.1 |
| 20260904095032 | 56 | 340 | 1.0 | 4.0 | 0.14 | 0.49 | 0.38 | 87 | 1002.3 |
| 20260904094542 | 57 | 197 | 1.0 | 5.0 | 0.11 | 0.45 | 0.34 | 88 | 1002.1 |
| 20260904094032 | 57 | 234 | 1.0 | 5.0 | 0.11 | 0.45 | 0.34 | 88 | 1002.1 |
| 20260904093532 | 56 | 302 | 2.0 | 5.0 | 0.11 | 0.45 | 0.34 | 88 | 1002.1 |
| 20260904093050 | 55 | 250 | 0.0 | 5.0 | 0.10 | 0.44 | 0.33 | 88 | 1001.9 |
| 20260904092532 | 55 | 314 | 1.0 | 5.0 | 0.10 | 0.44 | 0.33 | 87 | 1001.7 |
| 20260904092036 | 55 | 341 | 1.0 | 5.0 | 0.08 | 0.42 | 0.31 | 87 | 1001.8 |
| 20260904091547 | 55 | 12 | 1.0 | 5.0 | 0.09 | 0.42 | 0.31 | 87 | 1001.7 |
| 20260904091032 | 55 | 210 | 1.0 | 3.0 | 0.08 | 0.41 | 0.30 | 87 | 1001.5 |
| 20260904090532 | 55 | 304 | 1.0 | 2.0 | 0.08 | 0.40 | 0.29 | 87 | 1001.6 |
| 20260904090044 | 56 | 321 | 0.0 | 3.0 | 0.07 | 0.38 | 0.27 | 87 | 1001.6 |
| 20260904085531 | 56 | 144 | 1.0 | 3.0 | 0.04 | 0.36 | 0.25 | 87 | 1001.7 |
| 20260904085035 | 56 | 248 | 0.0 | 3.0 | 0.03 | 0.34 | 0.23 | 87 | 1001.7 |
| 20260904084542 | 56 | 0 | 0.0 | 3.0 | 0.03 | 0.34 | 0.23 | 87 | 1001.6 |
| 20260904084032 | 55 | 221 | 0.0 | 5.0 | 0.03 | 0.34 | 0.23 | 87 | 1001.6 |
| 20260904083532 | 55 | 295 | 1.0 | 5.0 | 0.04 | 0.34 | 0.23 | 87 | 1001.8 |
| 20260904083050 | 55 | 274 | 1.0 | 5.0 | 0.04 | 0.34 | 0.23 | 87 | 1001.7 |
| 20260904082532 | 55 | 338 | 1.0 | 4.0 | 0.04 | 0.34 | 0.23 | 87 | 1001.6 |
| 20260904082032 | 55 | 255 | 0.0 | 4.0 | 0.04 | 0.33 | 0.22 | 87 | 1001.7 |
| 20260904081552 | 55 | 219 | 0.0 | 4.0 | 0.04 | 0.33 | 0.22 | 87 | 1001.7 |
| 20260904081031 | 55 | 233 | 1.0 | 4.0 | 0.04 | 0.33 | 0.22 | 87 | 1001.6 |
| 20260904080531 | 55 | 320 | 1.0 | 4.0 | 0.03 | 0.32 | 0.21 | 87 | 1001.7 |
| 20260904080052 | 55 | 189 | 1.0 | 3.0 | 0.03 | 0.31 | 0.20 | 87 | 1001.5 |
| 20260904075533 | 55 | 293 | 0.0 | 3.0 | 0.03 | 0.31 | 0.20 | 87 | 1001.7 |
| 20260904075031 | 55 | 307 | 1.0 | 3.0 | 0.03 | 0.31 | 0.20 | 87 | 1001.7 |
| 20260904074548 | 55 | 243 | 1.0 | 2.0 | 0.03 | 0.31 | 0.20 | 87 | 1001.6 |
| 20260904074032 | 55 | 238 | 1.0 | 2.0 | 0.02 | 0.30 | 0.19 | 86 | 1001.7 |
| 20260904073536 | 55 | 271 | 1.0 | 3.0 | 0.01 | 0.29 | 0.18 | 86 | 1001.7 |
| 20260904073046 | 55 | 329 | 0.0 | 4.0 | 0.01 | 0.29 | 0.18 | 86 | 1001.8 |
| 20260904072531 | 56 | 234 | 1.0 | 4.0 | 0.01 | 0.29 | 0.18 | 86 | 1001.7 |
| 20260904072035 | 56 | 222 | 1.0 | 3.0 | 0.00 | 0.28 | 0.17 | 86 | 1001.7 |
| 20260904071543 | 56 | 257 | 0.0 | 2.0 | 0.00 | 0.28 | 0.17 | 86 | 1001.7 |
| 20260904071031 | 56 | 288 | 0.0 | 4.0 | 0.00 | 0.28 | 0.17 | 86 | 1001.7 |
| 20260904070533 | 56 | 332 | 1.0 | 4.0 | 0.00 | 0.28 | 0.17 | 86 | 1001.7 |
| 20260904070042 | 56 | 269 | 1.0 | 4.0 | 0.00 | 0.28 | 0.17 | 87 | 1001.7 |
| 20260904065531 | 55 | 250 | 0.0 | 4.0 | 0.00 | 0.28 | 0.17 | 87 | 1001.6 |
| 20260904065031 | 55 | 66 | 1.0 | 4.0 | 0.00 | 0.28 | 0.17 | 87 | 1001.6 |
| 20260904064553 | 55 | 256 | 0.0 | 3.0 | 0.00 | 0.28 | 0.17 | 87 | 1001.7 |
| 20260904064031 | 55 | 274 | 0.0 | 2.0 | 0.00 | 0.28 | 0.17 | 87 | 1001.7 |
| 20260904063532 | 55 | 54 | 1.0 | 2.0 | 0.00 | 0.28 | 0.17 | 87 | 1001.7 |
| 20260904063045 | 55 | 322 | 1.0 | 4.0 | 0.01 | 0.28 | 0.17 | 87 | 1001.8 |
| 20260904062531 | 54 | 255 | 1.0 | 4.0 | 0.02 | 0.28 | 0.17 | 87 | 1001.7 |
| 20260904062031 | 54 | 297 | 0.0 | 4.0 | 0.03 | 0.27 | 0.16 | 87 | 1001.8 |
| 20260904061545 | 54 | 233 | 0.0 | 3.0 | 0.03 | 0.27 | 0.16 | 87 | 1001.8 |
| 20260904061031 | 54 | 281 | 0.0 | 4.0 | 0.03 | 0.27 | 0.16 | 87 | 1001.8 |
| 20260904060534 | 54 | 241 | 0.0 | 4.0 | 0.03 | 0.27 | 0.16 | 87 | 1001.9 |
| 20260904060043 | 54 | 269 | 0.0 | 3.0 | 0.03 | 0.27 | 0.16 | 87 | 1002.0 |
| 20260904055531 | 54 | 0 | 0.0 | 3.0 | 0.03 | 0.27 | 0.16 | 87 | 1001.8 |
| 20260904055031 | 54 | 13 | 0.0 | 4.0 | 0.03 | 0.27 | 0.16 | 87 | 1001.8 |
| 20260904054551 | 54 | 266 | 1.0 | 4.0 | 0.03 | 0.27 | 0.16 | 87 | 1001.9 |
| 20260904054032 | 54 | 250 | 1.0 | 4.0 | 0.03 | 0.27 | 0.16 | 87 | 1001.8 |
| 20260904053535 | 54 | 284 | 1.0 | 4.0 | 0.03 | 0.27 | 0.16 | 87 | 1001.8 |
| 20260904053043 | 54 | 311 | 1.0 | 4.0 | 0.02 | 0.26 | 0.15 | 87 | 1001.8 |
| 20260904052532 | 54 | 278 | 1.0 | 4.0 | 0.00 | 0.25 | 0.14 | 87 | 1001.8 |
| 20260904052032 | 54 | 290 | 0.0 | 2.0 | 0.00 | 0.24 | 0.13 | 87 | 1001.8 |
| 20260904051544 | 54 | 139 | 0.0 | 3.0 | 0.00 | 0.24 | 0.13 | 87 | 1001.8 |
| 20260904051031 | 54 | 309 | 0.0 | 3.0 | 0.00 | 0.24 | 0.13 | 87 | 1001.8 |
| 20260904050533 | 54 | 319 | 0.0 | 3.0 | 0.00 | 0.24 | 0.13 | 88 | 1001.9 |
| 20260904050054 | 54 | 317 | 1.0 | 4.0 | 0.00 | 0.24 | 0.13 | 88 | 1001.9 |
| 20260904045531 | 54 | 302 | 1.0 | 4.0 | 0.00 | 0.24 | 0.13 | 88 | 1001.8 |
| 20260904045031 | 54 | 268 | 1.0 | 2.0 | 0.00 | 0.24 | 0.13 | 88 | 1001.9 |
| 20260904044555 | 54 | 276 | 0.0 | 2.0 | 0.00 | 0.24 | 0.13 | 88 | 1001.8 |
| 20260904044031 | 54 | 306 | 0.0 | 2.0 | 0.00 | 0.24 | 0.13 | 88 | 1001.8 |
| 20260904043534 | 54 | 208 | 0.0 | 2.0 | 0.00 | 0.24 | 0.13 | 88 | 1001.8 |
| 20260904043101 | 54 | 274 | 0.0 | 2.0 | 0.00 | 0.24 | 0.13 | 88 | 1001.9 |
| 20260904042532 | 54 | 85 | 0.0 | 2.0 | 0.00 | 0.24 | 0.13 | 88 | 1001.7 |
| 20260904042032 | 54 | 15 | 0.0 | 2.0 | 0.00 | 0.24 | 0.13 | 88 | 1001.8 |
| 20260904041553 | 54 | 347 | 0.0 | 2.0 | 0.00 | 0.24 | 0.13 | 88 | 1001.8 |
| 20260904041031 | 54 | 306 | 0.0 | 2.0 | 0.00 | 0.24 | 0.13 | 88 | 1001.8 |
| 20260904040532 | 54 | 252 | 0.0 | 2.0 | 0.00 | 0.24 | 0.13 | 88 | 1001.9 |
| 20260904040055 | 54 | 0 | 0.0 | 1.0 | 0.00 | 0.24 | 0.13 | 88 | 1002.2 |
| 20260904035531 | 54 | 58 | 0.0 | 1.0 | 0.00 | 0.24 | 0.13 | 88 | 1002.2 |
| 20260904035031 | 54 | 266 | 0.0 | 1.0 | 0.00 | 0.24 | 0.13 | 88 | 1002.6 |
| 20260904034551 | 54 | 243 | 0.0 | 2.0 | 0.01 | 0.24 | 0.13 | 88 | 1002.7 |
| 20260904034031 | 54 | 281 | 0.0 | 2.0 | 0.01 | 0.24 | 0.13 | 88 | 1002.6 |
| 20260904033531 | 54 | 293 | 0.0 | 1.0 | 0.02 | 0.24 | 0.13 | 88 | 1002.6 |
| 20260904033048 | 54 | 0 | 0.0 | 1.0 | 0.02 | 0.24 | 0.13 | 88 | 1002.5 |
| 20260904032534 | 54 | 335 | 0.0 | 1.0 | 0.02 | 0.24 | 0.13 | 87 | 1002.6 |
| 20260904032030 | 54 | 262 | 0.0 | 1.0 | 0.03 | 0.24 | 0.13 | 87 | 1002.7 |
| 20260904031545 | 55 | 293 | 0.0 | 1.0 | 0.03 | 0.24 | 0.13 | 87 | 1002.6 |
| 20260904031030 | 55 | 288 | 0.0 | 2.0 | 0.02 | 0.23 | 0.12 | 87 | 1002.5 |
| 20260904030532 | 55 | 0 | 0.0 | 2.0 | 0.02 | 0.23 | 0.12 | 87 | 1002.6 |
| 20260904030056 | 55 | 0 | 0.0 | 2.0 | 0.02 | 0.23 | 0.12 | 87 | 1002.5 |
| 20260904025531 | 55 | 0 | 0.0 | 2.0 | 0.02 | 0.23 | 0.12 | 87 | 1002.5 |
| 20260904025031 | 55 | 289 | 0.0 | 3.0 | 0.02 | 0.23 | 0.12 | 87 | 1002.7 |
| 20260904024553 | 55 | 231 | 0.0 | 3.0 | 0.01 | 0.22 | 0.11 | 87 | 1002.8 |
| 20260904024032 | 56 | 256 | 0.0 | 3.0 | 0.02 | 0.22 | 0.11 | 87 | 1002.8 |
| 20260904023532 | 56 | 251 | 1.0 | 3.0 | 0.01 | 0.22 | 0.11 | 88 | 1003.0 |
| 20260904023048 | 56 | 256 | 1.0 | 4.0 | 0.01 | 0.22 | 0.11 | 88 | 1002.9 |
| 20260904022531 | 57 | 261 | 1.0 | 4.0 | 0.02 | 0.22 | 0.11 | 88 | 1002.9 |
| 20260904022034 | 57 | 258 | 1.0 | 3.0 | 0.01 | 0.21 | 0.10 | 88 | 1003.0 |
| 20260904021546 | 57 | 252 | 0.0 | 2.0 | 0.01 | 0.21 | 0.10 | 88 | 1002.7 |
| 20260904021033 | 57 | 258 | 0.0 | 2.0 | 0.01 | 0.21 | 0.10 | 88 | 1002.8 |
| 20260904020531 | 57 | 264 | 0.0 | 2.0 | 0.01 | 0.21 | 0.10 | 88 | 1002.8 |
| 20260904020044 | 57 | 2 | 0.0 | 1.0 | 0.01 | 0.21 | 0.10 | 88 | 1003.0 |
| 20260904015534 | 57 | 0 | 0.0 | 1.0 | 0.01 | 0.21 | 0.10 | 88 | 1002.7 |
| 20260904015031 | 57 | 315 | 0.0 | 2.0 | 0.01 | 0.21 | 0.10 | 88 | 1002.8 |
| 20260904014550 | 57 | 122 | 0.0 | 3.0 | 0.02 | 0.21 | 0.10 | 88 | 1002.8 |
| 20260904014031 | 57 | 274 | 0.0 | 3.0 | 0.01 | 0.20 | 0.09 | 88 | 1003.1 |
| 20260904013531 | 57 | 155 | 0.0 | 3.0 | 0.01 | 0.20 | 0.09 | 88 | 1003.1 |
| 20260904013050 | 57 | 290 | 0.0 | 3.0 | 0.01 | 0.20 | 0.09 | 88 | 1003.1 |
| 20260904012531 | 57 | 255 | 1.0 | 3.0 | 0.00 | 0.19 | 0.08 | 88 | 1003.0 |
| 20260904012031 | 57 | 288 | 1.0 | 2.0 | 0.00 | 0.19 | 0.08 | 88 | 1003.0 |
| 20260904011546 | 57 | 0 | 0.0 | 1.0 | 0.00 | 0.19 | 0.08 | 88 | 1003.1 |
| 20260904011030 | 57 | 252 | 0.0 | 3.0 | 0.00 | 0.19 | 0.08 | 88 | 1003.3 |